| time (UTC) | temp C | wind direction | speed KPH | gust KPH | rain 1hr cm | rain 24hr cm | rain mn cm | humidity % | barometer mb |
| 20260507032004 | 10 | 45 | 14.5 | 16.1 | 0.00 | 1.47 | 0.10 | 91 | 1009.7 |
| 20260507031504 | 10 | 48 | 14.5 | 17.7 | 0.00 | 1.47 | 0.10 | 91 | 1009.7 |
| 20260507031004 | 10 | 49 | 12.9 | 17.7 | 0.00 | 1.50 | 0.10 | 91 | 1009.7 |
| 20260507030504 | 10 | 47 | 11.3 | 17.7 | 0.03 | 1.75 | 0.10 | 91 | 1009.6 |
| 20260507030004 | 10 | 57 | 12.9 | 17.7 | 0.03 | 1.75 | 0.10 | 91 | 1009.7 |
| 20260507025504 | 10 | 47 | 12.9 | 17.7 | 0.03 | 1.75 | 0.10 | 91 | 1009.7 |
| 20260507025004 | 10 | 41 | 12.9 | 16.1 | 0.03 | 1.78 | 0.10 | 91 | 1009.7 |
| 20260507024504 | 10 | 58 | 12.9 | 19.3 | 0.03 | 1.85 | 0.10 | 91 | 1009.7 |
| 20260507024025 | 10 | 49 | 14.5 | 19.3 | 0.03 | 2.01 | 0.10 | 91 | 1009.5 |
| 20260507023525 | 10 | 38 | 12.9 | 16.1 | 0.03 | 2.01 | 0.10 | 91 | 1009.6 |
| 20260507023004 | 10 | 48 | 12.9 | 16.1 | 0.03 | 2.01 | 0.10 | 91 | 1009.7 |
| 20260507022504 | 10 | 49 | 11.3 | 12.9 | 0.03 | 2.01 | 0.10 | 91 | 1009.7 |
| 20260507022004 | 10 | 40 | 12.9 | 17.7 | 0.03 | 2.01 | 0.10 | 91 | 1009.7 |
| 20260507021504 | 10 | 47 | 14.5 | 17.7 | 0.03 | 2.01 | 0.10 | 91 | 1009.9 |
| 20260507021025 | 10 | 60 | 12.9 | 16.1 | 0.03 | 2.01 | 0.10 | 91 | 1009.7 |
| 20260507020504 | 10 | 54 | 11.3 | 16.1 | 0.00 | 1.98 | 0.05 | 91 | 1009.9 |
| 20260507020004 | 10 | 40 | 11.3 | 16.1 | 0.00 | 1.98 | 0.05 | 91 | 1009.7 |
| 20260507015504 | 10 | 35 | 11.3 | 12.9 | 0.00 | 1.98 | 0.05 | 91 | 1009.9 |
| 20260507015004 | 10 | 32 | 9.7 | 12.9 | 0.00 | 1.98 | 0.05 | 91 | 1009.9 |
| 20260507014525 | 10 | 38 | 9.7 | 12.9 | 0.00 | 1.98 | 0.05 | 91 | 1010.0 |
| 20260507014004 | 10 | 48 | 9.7 | 12.9 | 0.00 | 1.98 | 0.05 | 91 | 1009.7 |
| 20260507013504 | 10 | 47 | 8.0 | 11.3 | 0.00 | 1.98 | 0.05 | 91 | 1009.5 |
| 20260507013004 | 10 | 36 | 6.4 | 9.7 | 0.03 | 1.98 | 0.05 | 91 | 1009.6 |
| 20260507012504 | 10 | 20 | 4.8 | 9.7 | 0.03 | 1.98 | 0.05 | 91 | 1009.6 |
| 20260507012025 | 10 | 12 | 4.8 | 11.3 | 0.03 | 1.98 | 0.05 | 91 | 1009.5 |
| 20260507011504 | 10 | 33 | 9.7 | 12.9 | 0.03 | 1.98 | 0.05 | 90 | 1009.7 |
| 20260507011004 | 10 | 31 | 9.7 | 12.9 | 0.03 | 2.01 | 0.05 | 90 | 1009.4 |
| 20260507010504 | 10 | 23 | 8.0 | 12.9 | 0.03 | 2.01 | 0.05 | 90 | 1009.4 |
| 20260507010004 | 10 | 16 | 6.4 | 9.7 | 0.03 | 2.01 | 0.05 | 90 | 1009.6 |
| 20260507005525 | 10 | 17 | 4.8 | 6.4 | 0.03 | 2.01 | 0.05 | 90 | 1009.6 |
| 20260507005004 | 10 | 15 | 4.8 | 8.0 | 0.03 | 2.01 | 0.05 | 90 | 1009.5 |
| 20260507004504 | 10 | 9 | 4.8 | 8.0 | 0.03 | 2.01 | 0.05 | 90 | 1009.6 |
| 20260507004004 | 10 | 12 | 4.8 | 8.0 | 0.03 | 2.01 | 0.05 | 90 | 1009.4 |
| 20260507003504 | 10 | 39 | 6.4 | 11.3 | 0.03 | 2.01 | 0.05 | 90 | 1009.5 |
| 20260507003004 | 10 | 49 | 9.7 | 17.7 | 0.00 | 1.98 | 0.03 | 90 | 1009.4 |
| 20260507002504 | 10 | 47 | 12.9 | 17.7 | 0.00 | 1.98 | 0.03 | 90 | 1009.3 |
| 20260507002025 | 10 | 35 | 14.5 | 17.7 | 0.00 | 1.98 | 0.03 | 90 | 1009.4 |
| 20260507001504 | 10 | 18 | 11.3 | 12.9 | 0.00 | 1.98 | 0.03 | 90 | 1009.6 |
| 20260507001025 | 10 | 2 | 8.0 | 12.9 | 0.00 | 1.98 | 0.03 | 90 | 1009.5 |
| 20260507000505 | 10 | 349 | 6.4 | 6.4 | 0.00 | 1.98 | 0.03 | 90 | 1009.5 |
| 20260507000004 | 10 | 14 | 8.0 | 12.9 | 0.00 | 1.98 | 0.03 | 90 | 1009.6 |
| 20260506235504 | 10 | 17 | 9.7 | 12.9 | 0.00 | 1.98 | 0.03 | 90 | 1009.5 |
| 20260506235004 | 10 | 17 | 8.0 | 12.9 | 0.00 | 1.98 | 0.03 | 90 | 1009.5 |
| 20260506234504 | 10 | 17 | 8.0 | 12.9 | 0.00 | 1.98 | 0.03 | 90 | 1009.6 |
| 20260506234004 | 10 | 25 | 8.0 | 9.7 | 0.00 | 1.98 | 0.03 | 90 | 1009.5 |
| 20260506233504 | 10 | 29 | 9.7 | 12.9 | 0.00 | 1.98 | 0.03 | 90 | 1009.4 |
| 20260506233004 | 10 | 17 | 11.3 | 14.5 | 0.00 | 1.98 | 0.03 | 90 | 1009.4 |
| 20260506232525 | 10 | 15 | 11.3 | 14.5 | 0.03 | 1.98 | 0.03 | 90 | 1009.4 |
| 20260506232004 | 10 | 25 | 12.9 | 17.7 | 0.03 | 1.98 | 0.03 | 90 | 1009.4 |
| 20260506231505 | 10 | 5 | 14.5 | 17.7 | 0.03 | 1.98 | 0.03 | 90 | 1009.5 |
| 20260506231003 | 10 | 12 | 11.3 | 17.7 | 0.03 | 1.98 | 0.03 | 90 | 1009.4 |
| 20260506230503 | 10 | 26 | 12.9 | 17.7 | 0.03 | 1.98 | 0.03 | 90 | 1009.6 |
| 20260506230004 | 10 | 28 | 12.9 | 17.7 | 0.03 | 1.98 | 0.03 | 90 | 1009.4 |
| 20260506225524 | 10 | 25 | 12.9 | 17.7 | 0.03 | 1.98 | 0.03 | 90 | 1009.3 |
| 20260506225003 | 10 | 20 | 12.9 | 16.1 | 0.03 | 1.98 | 0.03 | 90 | 1009.4 |
| 20260506224503 | 10 | 18 | 14.5 | 17.7 | 0.03 | 1.98 | 0.03 | 90 | 1009.4 |
| 20260506224003 | 10 | 21 | 14.5 | 17.7 | 0.05 | 1.98 | 0.03 | 90 | 1009.4 |
| 20260506223503 | 10 | 22 | 14.5 | 17.7 | 0.05 | 1.98 | 0.03 | 89 | 1009.4 |
| 20260506223003 | 10 | 9 | 12.9 | 17.7 | 0.05 | 1.98 | 0.03 | 89 | 1009.3 |
| 20260506222524 | 10 | 6 | 12.9 | 17.7 | 0.03 | 1.96 | 0.00 | 89 | 1009.3 |
| 20260506222003 | 10 | 13 | 11.3 | 17.7 | 0.03 | 1.96 | 0.00 | 89 | 1009.3 |
| 20260506221504 | 10 | 13 | 8.0 | 11.3 | 0.03 | 1.96 | 0.00 | 89 | 1009.3 |
| 20260506221024 | 10 | 16 | 6.4 | 11.3 | 0.03 | 1.96 | 0.00 | 89 | 1009.4 |
| 20260506220524 | 10 | 15 | 6.4 | 11.3 | 0.03 | 1.96 | 0.00 | 89 | 1009.4 |
| 20260506220004 | 10 | 24 | 9.7 | 12.9 | 0.05 | 1.96 | 0.00 | 89 | 1009.2 |
| 20260506215524 | 10 | 25 | 9.7 | 12.9 | 0.05 | 1.98 | 1.96 | 89 | 1009.2 |
| 20260506215004 | 10 | 20 | 8.0 | 11.3 | 0.05 | 1.98 | 1.96 | 89 | 1009.1 |
| 20260506214503 | 10 | 18 | 6.4 | 11.3 | 0.15 | 1.98 | 1.96 | 89 | 1009.3 |
| 20260506214003 | 10 | 6 | 8.0 | 9.7 | 0.15 | 1.98 | 1.93 | 89 | 1009.1 |
| 20260506213503 | 10 | 5 | 8.0 | 9.7 | 0.15 | 2.01 | 1.93 | 89 | 1009.1 |
| 20260506213003 | 10 | 13 | 9.7 | 12.9 | 0.15 | 2.03 | 1.93 | 89 | 1009.1 |
| 20260506212503 | 10 | 22 | 9.7 | 12.9 | 0.15 | 2.06 | 1.93 | 89 | 1009.1 |
| 20260506212003 | 10 | 24 | 9.7 | 12.9 | 0.15 | 2.11 | 1.93 | 89 | 1009.2 |
| 20260506211503 | 10 | 13 | 4.8 | 8.0 | 0.15 | 2.11 | 1.93 | 88 | 1009.2 |
| 20260506211003 | 10 | 356 | 3.2 | 6.4 | 0.15 | 2.11 | 1.93 | 88 | 1009.2 |
| 20260506210503 | 11 | 40 | 4.8 | 9.7 | 0.15 | 2.11 | 1.93 | 88 | 1009.3 |
| 20260506210003 | 10 | 39 | 8.0 | 11.3 | 0.13 | 2.06 | 1.88 | 88 | 1009.3 |
| 20260506205503 | 11 | 19 | 8.0 | 11.3 | 0.13 | 2.06 | 1.88 | 88 | 1009.0 |
| 20260506205003 | 11 | 9 | 6.4 | 8.0 | 0.13 | 2.06 | 1.88 | 88 | 1009.3 |
| 20260506204524 | 11 | 16 | 4.8 | 6.4 | 0.03 | 1.98 | 1.80 | 88 | 1009.1 |
| 20260506204024 | 11 | 48 | 3.2 | 6.4 | 0.00 | 1.96 | 1.78 | 88 | 1008.8 |
| 20260506203503 | 10 | 39 | 6.4 | 6.4 | 0.00 | 1.96 | 1.78 | 88 | 1008.7 |
| 20260506203003 | 10 | 18 | 6.4 | 6.4 | 0.00 | 1.96 | 1.78 | 88 | 1008.8 |
| 20260506202503 | 10 | 15 | 3.2 | 6.4 | 0.00 | 1.96 | 1.78 | 88 | 1008.8 |
| 20260506202003 | 10 | 7 | 3.2 | 6.4 | 0.00 | 1.96 | 1.78 | 87 | 1008.7 |
| 20260506201503 | 10 | 11 | 4.8 | 8.0 | 0.00 | 1.96 | 1.78 | 87 | 1008.6 |
| 20260506201024 | 10 | 20 | 8.0 | 8.0 | 0.00 | 1.96 | 1.78 | 87 | 1008.7 |
| 20260506200524 | 10 | 23 | 8.0 | 8.0 | 0.00 | 1.96 | 1.78 | 87 | 1008.7 |
| 20260506200004 | 10 | 43 | 8.0 | 9.7 | 0.00 | 1.96 | 1.78 | 87 | 1008.5 |
| 20260506195524 | 10 | 36 | 8.0 | 11.3 | 0.00 | 1.96 | 1.78 | 87 | 1008.5 |
| 20260506195024 | 10 | 15 | 8.0 | 11.3 | 0.00 | 1.96 | 1.78 | 87 | 1008.5 |
| 20260506194503 | 11 | 13 | 8.0 | 11.3 | 0.00 | 1.96 | 1.78 | 87 | 1008.5 |
| 20260506194003 | 11 | 26 | 8.0 | 11.3 | 0.00 | 1.96 | 1.78 | 87 | 1008.4 |
| 20260506193524 | 11 | 38 | 8.0 | 9.7 | 0.00 | 1.98 | 1.78 | 87 | 1008.4 |
| 20260506193003 | 11 | 32 | 6.4 | 9.7 | 0.00 | 2.01 | 1.78 | 87 | 1008.4 |
| 20260506192503 | 11 | 18 | 6.4 | 9.7 | 0.03 | 2.06 | 1.78 | 87 | 1008.3 |
| 20260506192024 | 10 | 11 | 6.4 | 6.4 | 0.03 | 2.11 | 1.78 | 87 | 1008.1 |
| 20260506191503 | 11 | 11 | 6.4 | 9.7 | 0.10 | 2.11 | 1.78 | 87 | 1008.0 |
| 20260506191003 | 11 | 17 | 6.4 | 9.7 | 0.15 | 2.13 | 1.78 | 87 | 1008.1 |
| 20260506190503 | 11 | 20 | 3.2 | 6.4 | 0.23 | 2.18 | 1.78 | 86 | 1007.9 |
| 20260506190003 | 11 | 351 | 3.2 | 9.7 | 0.23 | 2.18 | 1.78 | 86 | 1007.7 |
| 20260506185503 | 11 | 346 | 4.8 | 9.7 | 0.28 | 2.26 | 1.78 | 86 | 1007.7 |
| 20260506185003 | 11 | 58 | 4.8 | 12.9 | 0.30 | 2.26 | 1.78 | 86 | 1007.6 |
| 20260506184524 | 11 | 64 | 12.9 | 24.1 | 0.30 | 2.26 | 1.78 | 86 | 1007.6 |
| 20260506184003 | 11 | 78 | 19.3 | 25.7 | 0.33 | 2.26 | 1.78 | 86 | 1007.1 |
| 20260506183524 | 11 | 97 | 20.9 | 25.7 | 0.36 | 2.29 | 1.78 | 86 | 1006.8 |
| 20260506183004 | 11 | 98 | 22.5 | 29.0 | 0.38 | 2.29 | 1.78 | 86 | 1006.5 |
| 20260506182503 | 11 | 77 | 25.7 | 32.2 | 0.38 | 2.26 | 1.75 | 85 | 1006.5 |
| 20260506182024 | 11 | 73 | 24.1 | 32.2 | 0.38 | 2.29 | 1.75 | 85 | 1005.7 |
| 20260506181503 | 11 | 104 | 14.5 | 27.4 | 0.36 | 2.21 | 1.68 | 84 | 1006.4 |
| 20260506181003 | 11 | 106 | 8.0 | 12.9 | 0.30 | 2.16 | 1.63 | 84 | 1007.4 |
| 20260506180503 | 11 | 36 | 6.4 | 6.4 | 0.20 | 2.13 | 1.52 | 83 | 1007.7 |
| 20260506180004 | 11 | 359 | 6.4 | 12.9 | 0.20 | 2.13 | 1.52 | 83 | 1007.4 |
| 20260506175503 | 12 | 29 | 9.7 | 12.9 | 0.18 | 2.16 | 1.50 | 82 | 1007.4 |
| 20260506175003 | 12 | 60 | 6.4 | 11.3 | 0.15 | 2.13 | 1.47 | 82 | 1007.1 |
| 20260506174503 | 12 | 83 | 6.4 | 9.7 | 0.15 | 2.13 | 1.47 | 82 | 1006.8 |
| 20260506174003 | 12 | 90 | 4.8 | 9.7 | 0.13 | 2.11 | 1.45 | 81 | 1006.8 |
| 20260506173503 | 12 | 273 | 4.8 | 12.9 | 0.10 | 2.06 | 1.42 | 78 | 1006.7 |
| 20260506173003 | 12 | 146 | 12.9 | 19.3 | 0.05 | 2.06 | 1.37 | 78 | 1006.7 |
| 20260506172503 | 12 | 111 | 14.5 | 19.3 | 0.03 | 2.03 | 1.35 | 78 | 1006.3 |
| 20260506172003 | 12 | 70 | 11.3 | 19.3 | 0.03 | 2.06 | 1.35 | 77 | 1006.1 |
| 20260506171503 | 12 | 32 | 9.7 | 12.9 | 0.00 | 2.06 | 1.32 | 77 | 1006.3 |
| 20260506171003 | 12 | 11 | 8.0 | 12.9 | 0.00 | 2.11 | 1.32 | 77 | 1006.4 |
| 20260506170503 | 12 | 12 | 8.0 | 14.5 | 0.00 | 2.11 | 1.32 | 77 | 1006.3 |
| 20260506170003 | 13 | 18 | 9.7 | 16.1 | 0.00 | 2.11 | 1.32 | 77 | 1006.3 |
| 20260506165524 | 13 | 17 | 12.9 | 17.7 | 0.00 | 2.13 | 1.32 | 77 | 1006.0 |
| 20260506165003 | 13 | 19 | 14.5 | 17.7 | 0.00 | 2.16 | 1.32 | 78 | 1006.1 |
| 20260506164503 | 13 | 29 | 14.5 | 19.3 | 0.00 | 2.18 | 1.32 | 78 | 1006.0 |
| 20260506164003 | 13 | 24 | 14.5 | 19.3 | 0.00 | 2.26 | 1.32 | 79 | 1006.0 |
| 20260506163503 | 13 | 22 | 12.9 | 17.7 | 0.00 | 2.29 | 1.32 | 80 | 1005.8 |
| 20260506163003 | 13 | 18 | 14.5 | 17.7 | 0.00 | 2.31 | 1.32 | 80 | 1005.8 |
| 20260506162503 | 13 | 14 | 9.7 | 16.1 | 0.00 | 2.31 | 1.32 | 80 | 1005.7 |
| 20260506162003 | 13 | 23 | 8.0 | 12.9 | 0.00 | 2.31 | 1.32 | 80 | 1005.6 |
| 20260506161503 | 13 | 26 | 8.0 | 11.3 | 0.00 | 2.31 | 1.32 | 80 | 1005.8 |
| 20260506161003 | 13 | 18 | 8.0 | 12.9 | 0.00 | 2.31 | 1.32 | 80 | 1005.6 |
| 20260506160503 | 13 | 16 | 9.7 | 17.7 | 0.00 | 2.34 | 1.32 | 80 | 1005.4 |
| 20260506160003 | 13 | 22 | 12.9 | 17.7 | 0.00 | 2.34 | 1.32 | 80 | 1005.3 |
| 20260506155503 | 14 | 29 | 12.9 | 17.7 | 0.00 | 2.34 | 1.32 | 81 | 1005.3 |
| 20260506155024 | 14 | 25 | 12.9 | 20.9 | 0.00 | 2.34 | 1.32 | 81 | 1005.3 |
| 20260506154503 | 14 | 23 | 14.5 | 20.9 | 0.00 | 2.36 | 1.32 | 81 | 1005.4 |
| 20260506154003 | 14 | 29 | 16.1 | 22.5 | 0.00 | 2.36 | 1.32 | 82 | 1005.4 |
| 20260506153503 | 13 | 23 | 16.1 | 22.5 | 0.00 | 2.36 | 1.32 | 82 | 1005.6 |
| 20260506153003 | 13 | 17 | 17.7 | 22.5 | 0.00 | 2.36 | 1.32 | 83 | 1005.6 |
| 20260506152503 | 13 | 20 | 16.1 | 24.1 | 0.00 | 2.36 | 1.32 | 83 | 1005.5 |
| 20260506152003 | 13 | 17 | 14.5 | 24.1 | 0.00 | 2.36 | 1.32 | 84 | 1005.7 |
| 20260506151503 | 13 | 13 | 16.1 | 19.3 | 0.00 | 2.36 | 1.32 | 85 | 1005.8 |
| 20260506151003 | 13 | 23 | 17.7 | 19.3 | 0.00 | 2.36 | 1.32 | 85 | 1005.5 |
| 20260506150503 | 13 | 28 | 14.5 | 19.3 | 0.00 | 2.36 | 1.32 | 86 | 1005.9 |
| 20260506150003 | 12 | 34 | 14.5 | 17.7 | 0.00 | 2.36 | 1.32 | 86 | 1005.9 |
| 20260506145503 | 12 | 48 | 12.9 | 16.1 | 0.00 | 2.39 | 1.32 | 86 | 1006.1 |
| 20260506145024 | 12 | 53 | 14.5 | 17.7 | 0.00 | 2.39 | 1.32 | 87 | 1006.1 |
| 20260506144503 | 12 | 43 | 14.5 | 17.7 | 0.00 | 2.39 | 1.32 | 87 | 1006.2 |
| 20260506144003 | 12 | 40 | 14.5 | 17.7 | 0.00 | 2.44 | 1.32 | 88 | 1006.0 |
| 20260506143503 | 12 | 40 | 14.5 | 17.7 | 0.00 | 2.44 | 1.32 | 88 | 1006.0 |
| 20260506143024 | 12 | 38 | 12.9 | 17.7 | 0.00 | 2.46 | 1.32 | 88 | 1006.0 |
| 20260506142503 | 12 | 35 | 16.1 | 22.5 | 0.00 | 2.46 | 1.32 | 89 | 1005.9 |
| 20260506142024 | 12 | 41 | 17.7 | 22.5 | 0.00 | 2.46 | 1.32 | 89 | 1006.1 |
| 20260506141503 | 13 | 49 | 16.1 | 20.9 | 0.00 | 2.46 | 1.32 | 90 | 1006.1 |
| 20260506141003 | 13 | 42 | 14.5 | 17.7 | 0.10 | 2.46 | 1.32 | 90 | 1006.2 |
| 20260506140503 | 13 | 32 | 14.5 | 17.7 | 0.13 | 2.46 | 1.32 | 91 | 1006.1 |
| 20260506140003 | 13 | 19 | 12.9 | 17.7 | 0.23 | 2.49 | 1.32 | 91 | 1006.0 |
| 20260506135503 | 12 | 5 | 11.3 | 17.7 | 0.33 | 2.49 | 1.32 | 91 | 1006.0 |
| 20260506135024 | 12 | 356 | 11.3 | 14.5 | 0.53 | 2.49 | 1.32 | 91 | 1006.1 |
| 20260506134503 | 12 | 3 | 9.7 | 14.5 | 0.56 | 2.51 | 1.32 | 90 | 1006.0 |
| 20260506134003 | 12 | 20 | 9.7 | 11.3 | 0.64 | 2.51 | 1.32 | 92 | 1006.2 |
| 20260506133503 | 11 | 22 | 8.0 | 11.3 | 0.64 | 2.51 | 1.32 | 92 | 1006.1 |
| 20260506133003 | 11 | 10 | 6.4 | 9.7 | 0.64 | 2.54 | 1.32 | 92 | 1006.1 |
| 20260506132503 | 11 | 335 | 8.0 | 11.3 | 0.64 | 2.54 | 1.32 | 91 | 1006.5 |
| 20260506132003 | 10 | 345 | 8.0 | 12.9 | 0.64 | 2.54 | 1.32 | 91 | 1006.3 |
| 20260506131503 | 10 | 24 | 9.7 | 12.9 | 0.64 | 2.59 | 1.32 | 90 | 1006.4 |
| 20260506131003 | 10 | 31 | 9.7 | 12.9 | 0.53 | 2.49 | 1.22 | 90 | 1006.6 |
| 20260506130503 | 10 | 8 | 9.7 | 17.7 | 0.51 | 2.46 | 1.19 | 90 | 1006.5 |
| 20260506130003 | 10 | 333 | 11.3 | 17.7 | 0.38 | 2.34 | 1.09 | 89 | 1006.5 |
| 20260506125503 | 11 | 342 | 12.9 | 17.7 | 0.30 | 2.29 | 0.99 | 89 | 1006.2 |
| 20260506125024 | 11 | 357 | 11.3 | 14.5 | 0.10 | 2.06 | 0.81 | 89 | 1006.4 |
| 20260506124503 | 11 | 2 | 9.7 | 17.7 | 0.05 | 2.03 | 0.76 | 89 | 1006.4 |
| 20260506124003 | 12 | 351 | 14.5 | 22.5 | 0.00 | 1.98 | 0.69 | 89 | 1006.6 |
| 20260506123503 | 12 | 346 | 16.1 | 22.5 | 0.00 | 1.98 | 0.69 | 86 | 1006.4 |
| 20260506123003 | 13 | 5 | 12.9 | 16.1 | 0.00 | 2.01 | 0.69 | 88 | 1006.4 |
| 20260506122524 | 14 | 27 | 11.3 | 20.9 | 0.00 | 2.01 | 0.69 | 90 | 1006.3 |
| 20260506122024 | 15 | 138 | 11.3 | 20.9 | 0.00 | 2.01 | 0.69 | 91 | 1006.3 |
| 20260506121503 | 15 | 140 | 11.3 | 19.3 | 0.00 | 2.01 | 0.69 | 91 | 1006.0 |
| 20260506121024 | 15 | 205 | 14.5 | 19.3 | 0.00 | 2.01 | 0.69 | 91 | 1005.7 |
| 20260506120503 | 15 | 221 | 12.9 | 17.7 | 0.00 | 2.03 | 0.69 | 92 | 1005.7 |
| 20260506120003 | 15 | 191 | 14.5 | 17.7 | 0.00 | 2.03 | 0.69 | 92 | 1005.6 |
| 20260506115503 | 15 | 167 | 16.1 | 24.1 | 0.00 | 2.03 | 0.69 | 93 | 1005.5 |
| 20260506115003 | 15 | 127 | 16.1 | 24.1 | 0.00 | 2.03 | 0.69 | 93 | 1005.6 |
| 20260506114504 | 15 | 149 | 16.1 | 20.9 | 0.00 | 2.03 | 0.69 | 93 | 1005.5 |
| 20260506114005 | 14 | 164 | 17.7 | 22.5 | 0.00 | 2.06 | 0.69 | 93 | 1005.8 |
| 20260506113505 | 14 | 163 | 22.5 | 30.6 | 0.00 | 2.06 | 0.69 | 93 | 1005.8 |
| 20260506113005 | 14 | 157 | 20.9 | 30.6 | 0.00 | 2.06 | 0.69 | 94 | 1005.6 |
| 20260506112504 | 14 | 149 | 17.7 | 27.4 | 0.00 | 2.06 | 0.69 | 94 | 1005.6 |
| 20260506112004 | 14 | 172 | 14.5 | 19.3 | 0.00 | 2.11 | 0.69 | 94 | 1005.8 |
| 20260506111505 | 13 | 188 | 16.1 | 20.9 | 0.00 | 2.11 | 0.69 | 94 | 1005.9 |
| 20260506111004 | 13 | 153 | 17.7 | 20.9 | 0.00 | 2.11 | 0.69 | 94 | 1005.9 |
| 20260506110505 | 13 | 147 | 20.9 | 27.4 | 0.00 | 2.11 | 0.69 | 94 | 1006.0 |
| 20260506110005 | 13 | 147 | 22.5 | 30.6 | 0.00 | 2.13 | 0.69 | 94 | 1005.7 |
| 20260506105505 | 13 | 139 | 25.7 | 32.2 | 0.03 | 2.13 | 0.69 | 94 | 1005.9 |
| 20260506105005 | 13 | 136 | 27.4 | 32.2 | 0.03 | 2.13 | 0.69 | 94 | 1006.0 |
| 20260506104504 | 13 | 122 | 24.1 | 30.6 | 0.03 | 2.16 | 0.69 | 94 | 1005.8 |
| 20260506104025 | 13 | 118 | 20.9 | 27.4 | 0.03 | 2.16 | 0.69 | 94 | 1006.0 |
| 20260506103505 | 13 | 137 | 20.9 | 27.4 | 0.03 | 2.16 | 0.69 | 94 | 1006.1 |
| 20260506103005 | 13 | 134 | 19.3 | 29.0 | 0.03 | 2.16 | 0.69 | 94 | 1006.1 |
| 20260506102505 | 13 | 133 | 20.9 | 29.0 | 0.03 | 2.18 | 0.69 | 95 | 1006.1 |
| 20260506102004 | 13 | 145 | 20.9 | 30.6 | 0.03 | 2.18 | 0.69 | 95 | 1006.1 |
| 20260506101505 | 13 | 138 | 22.5 | 30.6 | 0.03 | 2.18 | 0.69 | 95 | 1006.2 |
| 20260506101004 | 13 | 136 | 22.5 | 27.4 | 0.03 | 2.18 | 0.69 | 95 | 1006.1 |
| 20260506100504 | 13 | 130 | 25.7 | 41.8 | 0.03 | 2.21 | 0.69 | 95 | 1006.0 |
| 20260506100005 | 12 | 128 | 25.7 | 41.8 | 0.03 | 2.21 | 0.69 | 95 | 1006.0 |
| 20260506095505 | 12 | 149 | 20.9 | 25.7 | 0.00 | 2.21 | 0.66 | 95 | 1006.0 |
| 20260506095005 | 12 | 154 | 22.5 | 27.4 | 0.00 | 2.21 | 0.66 | 95 | 1006.0 |
| 20260506094504 | 12 | 136 | 25.7 | 33.8 | 0.00 | 2.26 | 0.66 | 96 | 1005.9 |
| 20260506094005 | 12 | 136 | 20.9 | 33.8 | 0.00 | 2.29 | 0.66 | 96 | 1005.9 |
| 20260506093505 | 12 | 132 | 22.5 | 30.6 | 0.00 | 2.29 | 0.66 | 96 | 1006.0 |
| 20260506093005 | 12 | 134 | 27.4 | 33.8 | 0.00 | 2.29 | 0.66 | 96 | 1006.0 |
| 20260506092505 | 12 | 147 | 25.7 | 33.8 | 0.00 | 2.29 | 0.66 | 96 | 1006.0 |
| 20260506092005 | 12 | 147 | 22.5 | 29.0 | 0.00 | 2.31 | 0.66 | 96 | 1005.9 |
| 20260506091505 | 12 | 140 | 24.1 | 30.6 | 0.00 | 2.31 | 0.66 | 96 | 1006.0 |
| 20260506091005 | 12 | 96 | 27.4 | 30.6 | 0.00 | 2.31 | 0.66 | 96 | 1005.8 |
| 20260506090505 | 12 | 92 | 27.4 | 30.6 | 0.00 | 2.34 | 0.66 | 96 | 1005.8 |
| 20260506090004 | 12 | 124 | 25.7 | 32.2 | 0.00 | 2.34 | 0.66 | 96 | 1005.7 |
| 20260506085505 | 12 | 116 | 27.4 | 33.8 | 0.00 | 2.34 | 0.66 | 97 | 1005.7 |
| 20260506085005 | 12 | 132 | 29.0 | 33.8 | 0.00 | 2.34 | 0.66 | 97 | 1005.7 |
| 20260506084504 | 12 | 154 | 30.6 | 37.0 | 0.00 | 2.34 | 0.66 | 97 | 1005.7 |
| 20260506084005 | 12 | 147 | 27.4 | 37.0 | 0.00 | 2.34 | 0.66 | 97 | 1005.9 |
| 20260506083505 | 12 | 125 | 19.3 | 27.4 | 0.00 | 2.34 | 0.66 | 97 | 1005.9 |
| 20260506083005 | 12 | 131 | 19.3 | 29.0 | 0.00 | 2.34 | 0.66 | 97 | 1006.0 |
| 20260506082504 | 12 | 137 | 25.7 | 32.2 | 0.00 | 2.34 | 0.66 | 97 | 1006.1 |
| 20260506082005 | 12 | 134 | 24.1 | 32.2 | 0.00 | 2.34 | 0.66 | 97 | 1006.1 |
| 20260506081526 | 12 | 132 | 25.7 | 37.0 | 0.00 | 2.34 | 0.66 | 97 | 1006.1 |
| 20260506081005 | 12 | 132 | 27.4 | 37.0 | 0.03 | 2.34 | 0.66 | 97 | 1006.0 |
| 20260506080504 | 12 | 145 | 25.7 | 30.6 | 0.03 | 2.36 | 0.66 | 97 | 1006.0 |
| 20260506073504 | 12 | 153 | 22.5 | 29.0 | 0.03 | 2.36 | 0.66 | 97 | 1006.0 |
| 20260506073005 | 12 | 143 | 24.1 | 27.4 | 0.03 | 2.36 | 0.66 | 97 | 1006.1 |
| 20260506072525 | 12 | 134 | 24.1 | 29.0 | 0.03 | 2.36 | 0.66 | 97 | 1005.9 |
| 20260506072026 | 12 | 132 | 22.5 | 33.8 | 0.03 | 2.36 | 0.66 | 97 | 1006.0 |
| 20260506071504 | 12 | 153 | 19.3 | 33.8 | 0.03 | 2.36 | 0.66 | 100 | 1006.1 |
| 20260506071004 | 12 | 151 | 14.5 | 24.1 | 0.00 | 2.36 | 0.64 | 100 | 1006.0 |
| 20260506070504 | 12 | 129 | 16.1 | 19.3 | 0.00 | 2.36 | 0.64 | 100 | 1006.2 |
| 20260506062505 | 12 | 138 | 17.7 | 25.7 | 0.03 | 2.64 | 0.64 | 100 | 1006.5 |
| 20260506062004 | 12 | 131 | 19.3 | 25.7 | 0.03 | 2.67 | 0.64 | 100 | 1006.5 |
| 20260506061505 | 12 | 133 | 17.7 | 25.7 | 0.03 | 2.67 | 0.64 | 100 | 1006.6 |
| 20260506061005 | 12 | 141 | 12.9 | 17.7 | 0.03 | 2.67 | 0.64 | 100 | 1006.5 |
| 20260506060504 | 12 | 136 | 12.9 | 16.1 | 0.03 | 2.69 | 0.64 | 100 | 1006.6 |
| 20260506051004 | 12 | 189 | 20.9 | 24.1 | 0.00 | 2.77 | 0.61 | 100 | 1006.7 |
| 20260506050504 | 12 | 174 | 20.9 | 27.4 | 0.00 | 2.77 | 0.61 | 100 | 1006.8 |
| 20260506045004 | 12 | 152 | 19.3 | 27.4 | 0.00 | 2.79 | 0.61 | 97 | 1006.9 |
| 20260506044526 | 12 | 156 | 17.7 | 24.1 | 0.00 | 2.79 | 0.61 | 97 | 1006.7 |
| 20260506044004 | 12 | 172 | 17.7 | 24.1 | 0.00 | 2.79 | 0.61 | 97 | 1006.9 |
| 20260506043505 | 12 | 168 | 19.3 | 24.1 | 0.00 | 2.79 | 0.61 | 97 | 1007.1 |
| 20260506043004 | 12 | 177 | 19.3 | 24.1 | 0.03 | 2.79 | 0.61 | 97 | 1007.2 |
| 20260506042504 | 12 | 183 | 19.3 | 27.4 | 0.03 | 2.79 | 0.61 | 97 | 1007.2 |
| 20260506042005 | 12 | 170 | 20.9 | 27.4 | 0.03 | 2.79 | 0.61 | 97 | 1007.3 |
| 20260506041505 | 12 | 145 | 20.9 | 27.4 | 0.03 | 2.79 | 0.61 | 97 | 1007.2 |
| 20260506041004 | 12 | 178 | 24.1 | 27.4 | 0.05 | 2.79 | 0.61 | 97 | 1007.1 |
| 20260506040504 | 12 | 183 | 20.9 | 25.7 | 0.30 | 2.82 | 0.61 | 97 | 1007.2 |
| 20260506040025 | 12 | 151 | 16.1 | 25.7 | 0.30 | 2.82 | 0.61 | 97 | 1007.3 |
| 20260506035504 | 12 | 155 | 14.5 | 17.7 | 0.30 | 2.82 | 0.61 | 97 | 1007.3 |
| 20260506035004 | 12 | 168 | 14.5 | 17.7 | 0.33 | 2.82 | 0.61 | 97 | 1007.1 |
| 20260506034505 | 12 | 169 | 14.5 | 22.5 | 0.43 | 2.82 | 0.61 | 97 | 1007.2 |
| 20260506034004 | 12 | 162 | 14.5 | 22.5 | 0.56 | 2.82 | 0.61 | 97 | 1007.2 |
| 20260506033504 | 12 | 150 | 14.5 | 19.3 | 0.56 | 2.82 | 0.61 | 97 | 1007.2 |
| 20260506033005 | 12 | 142 | 12.9 | 19.3 | 0.53 | 2.79 | 0.56 | 96 | 1007.3 |